Terminal Aerodrome Forecast
Issued by NWS

Home | Current Version | Previous Version | Graphics & Text | Print | Product List | Glossary On
Versions: 1 2 3 4 5 6 7 8 9 10 11 12 13 14 15 16 17 18 19 20 21 22 23 24 25 26 27 28 29 30 31 32 33 34 35 36 37 38 39 40 41 42
243
FTUS43 KGRB 291732
TAFRHI
TAF
KRHI 291732Z 2918/3018 06007KT P6SM SKC
     FM292300 05003KT P6SM SKC
     FM300700 06002KT 4SM BR SKC
     FM301300 07007G15KT P6SM SCT025
      TEMPO 3017/3018 BKN025=

USA.gov is the U.S. government's official web portal to all federal, state and local government web resources and services.